    Observer details:
    232 Masquefa Observatory.  Observer E. Reina.  0.25-m f/3.3 Schmidt-Cassegrain
        + CCD.
    448 Desert Moon Observatory.  Observer B. L. Stevens.  0.3-m
        Schmidt-Cassegrain + CCD.
    673 Table Mountain Observatory, Wrightwood.  Observer J. Young.  0.61-m f/16
        Cassegrain + CCD.
    704 Lincoln Laboratory ETS, New Mexico.  Observers M. Bezpalko, L. Manguso,
        D. Torres, R. Kracke, H. Love, G. Spitz, J. Kistler.  Measurers J. Stuart,
        J. Kommers.  1.0-m f/2.15 reflector + CCD.
    711 McDonald Observatory.  Observer J. G. Ries.  0.76-m reflector + CCD.
    719 Etscorn Observatory.  Observer details not supplied.
    734 Farpoint Observatory.  Observer G. Hug.  Measurer D. Tibbets.  0.7-m
        reflector + CCD.
    844 Los Molinos.  Observer R. Salvo.  0.46-m f/2.8 reflector + CCD.
    850 Cordell-Lorenz Observatory, Sewanee.  Observers D. T. Durig, E. A. Pierce.
        0.30-m f/5 Schmidt-Cassegrain + CCD.
    854 Sabino Canyon Observatory, Tucson.  Observer J. E. McGaha.  0.36-m f/10.0
        Schmidt-Cassegrain + CCD.
    G96 Mt. Lemmon Survey.  Observers R. E. Hill, E. J. Christensen.  Measurers
        E. C. Beshore, E. J. Christensen, A. R. Gibbs, A. D. Grauer,
        R. E. Hill, R. A. Kowalski, S. M. Larson.  1.5-m reflector + CCD.
    H06 RAS Observatory, Mayhill.  Observers R. Hutsebaut, E. Guido, G. Sostero.
        0.25-m f/3.4 reflector + CCD.
    
    Orbital elements:
        P/2006 U1 (LINEAR)
    T 2006 Aug. 28.280 TT                                   MPC
    q   0.51236              (2000.0)            P               Q
    n   0.227626       Peri.   63.881       +0.556412       +0.821246
    a   2.65657        Node   240.500       -0.804749       +0.494779
    e   0.80714        Incl.    8.346       -0.206846       +0.284163
    P   4.33
    From 93 observations 2006 Oct. 19-21.
    
    Ephemeris:
        P/2006 U1 (LINEAR)
    Date    TT    R. A. (2000) Decl.     Delta      r     Elong.  Phase   m1    m2
    2006 10 12    08 07.80   +27 57.7    0.385    1.008    80.4    77.5  16.5
    2006 10 17    07 40.49   +27 48.1    0.394    1.079    91.2    67.4  16.8
    2006 10 22    07 13.72   +27 22.0    0.406    1.150   101.9    57.9  17.1
    2006 10 27    06 47.27   +26 41.5    0.420    1.219   112.7    48.8  17.5
    2006 11 01    06 21.30   +25 47.9    0.439    1.288   123.5    40.0  17.8
    2006 11 06    05 56.27   +24 43.6    0.462    1.355   134.2    31.7  18.1
    2006 11 11    05 32.73   +23 31.8    0.492    1.420   144.6    23.8  18.5
    2006 11 16    05 11.19   +22 16.8    0.529    1.485   154.7    16.6  18.8
    2006 11 21    04 52.06   +21 02.8    0.574    1.548   164.2    10.0  19.2
    2006 11 26    04 35.54   +19 53.7    0.626    1.610   173.0     4.3  19.6
    2006 12 01    04 21.67   +18 52.0    0.685    1.671   176.8     1.9  19.9
    
    Brian G. Marsden             (C) Copyright 2006 MPC           M.P.E.C. 2006-U42
    

    Read MPEC 2006-U41 Read MPEC 2006-U43


    MPEC number:

    Enter an MPEC number in one of the following forms:

    • 1997-B01 (the full form)
    • J97B01 (the packed version of the full form)
    • B01 (the abbreviated form)